C/2015 V4 ( PanSTARRS )

Japanese version
Home page
Updated on February 7, 2017

---------------------------------------------------------------------

* Profile

Discovery Date November 3, 2015
Magnitude 20.4 mag
Discoverer Pan-STARRS 1 telescope (Haleakala)

* Pictures

* Orbital Elements

Epoch 2016 Sept. 9.0 TT = JDT 2457640.5
T 2016 Aug. 28.28019 TT                                 MPCW
q   5.4594675            (2000.0)            P               Q
n   0.01234004     Peri.  306.93642     -0.60021577     -0.79983655
a  18.5463435      Node   179.89559     +0.63672363     -0.47660708
e   0.7056311      Incl.   60.75167     -0.48407030     +0.36483858
P  79.87
From 67 observations 2015 Nov. 3-2016 Nov. 3, mean residual 0".4.

* Magnitudes Graph

        m1 = 8.3 + 5 log d + 10.0 log r

---------------------------------------------------------------------

The orbital elements are published on M.P.E.C. 2016-V116.
The magnitudes graphs are made with Comet for Windows.

---------------------------------------------------------------------

Copyright(C) Seiichi Yoshida (comet@aerith.net). All rights reserved.